[[{"header":{"parameterUnit":"m.s-1","parameterCategory":1,"la1":30.2991,"la2":30.254,"lo1":-89.0895,"lo2":-89.0444,"dy":0.0017,"dx":0.0017,"nx":28,"ny":28,"refTime":"2024-04-20T03:00:00:Z","depth":0,"parameterNumber":2,"parameterNumberName":"U-component_of_WINDS"},"data":[0,0,0,0,0,0,0,0,0,0,0,0,0,0,0,0,0,0,0,0,0,0,0,0,0,0,0,0,0,0,0,0,0,0,0,0,0,0,0,0,0,0,0,0,0,0,0,0,0,0,0,0,0,0,0,0,0,0,-0.5562,-0.5561,0,-0.5449,-0.5448,-0.5446,-0.5399,-0.5399,-0.54,-0.54,-0.5283,-0.528,-0.5276,0,0,0,0,0,0,0,0,0,0,0,0,0,-0.5738,-0.5735,-0.5562,-0.5561,-0.5559,-0.5449,-0.5448,-0.5446,-0.5399,-0.5399,-0.54,-0.54,-0.5284,-0.528,-0.5276,0,0,0,0,0,0,0,0,0,0,0,0,0,-0.5647,-0.5734,-0.5563,-0.5523,-0.5518,-0.545,-0.5448,-0.5446,-0.5399,-0.5399,-0.54,-0.54,-0.5285,-0.528,-0.5275,-0.5238,0,0,-0.526,-0.5258,0,0,0,0,0,0,0,0,-0.5652,-0.5641,-0.553,-0.5525,-0.552,-0.5439,-0.5467,-0.5376,-0.5399,-0.5444,-0.54,-0.54,-0.5334,-0.5325,-0.5303,-0.5232,-0.5227,-0.526,-0.5257,-0.5254,-0.5253,0,0,0,0,0,0,0,-0.5659,-0.5645,-0.5517,-0.5528,-0.5522,-0.5511,-0.5498,-0.5449,-0.5389,-0.544,-0.5437,-0.5424,-0.5332,-0.5308,-0.53,-0.5225,-0.526,-0.5255,-0.5252,-0.525,-0.5119,-0.5118,0,0,0,0,0,0,-0.5671,-0.5651,-0.5521,-0.5514,-0.5588,-0.5507,-0.5493,-0.5464,-0.5389,-0.5378,-0.5424,-0.5422,-0.5316,-0.5306,-0.5296,-0.5247,-0.5255,-0.525,-0.5247,-0.5119,-0.5119,-0.5118,0,0,0,0,0,0,-0.5675,-0.566,-0.5526,-0.5581,-0.5563,-0.5504,-0.5472,-0.5462,-0.5438,-0.5377,-0.5365,-0.5411,-0.5316,-0.5303,-0.5253,-0.5242,-0.5248,-0.5243,-0.512,-0.5119,-0.5118,-0.5149,0,0,0,0,0,0,-0.5681,-0.5662,-0.5647,-0.5581,-0.5561,-0.5485,-0.5471,-0.5459,-0.543,-0.5427,-0.5362,-0.5351,-0.5316,-0.526,-0.5248,-0.5236,-0.5239,-0.512,-0.5119,-0.5118,-0.5149,-0.515,-0.515,0,0,0,0,0,-0.5687,-0.566,-0.5646,-0.5631,-0.554,-0.5484,-0.5472,-0.5432,-0.5429,-0.5414,-0.5374,-0.5353,-0.5246,-0.5256,-0.5241,-0.5227,-0.5121,-0.512,-0.5119,-0.5149,-0.515,-0.515,0,0,0,0,0,0,-0.5725,-0.565,-0.5635,-0.5585,-0.5542,-0.5476,-0.5455,-0.5434,-0.539,-0.5389,-0.5341,-0.5326,-0.5281,-0.5249,-0.5261,-0.5187,-0.5182,-0.5178,-0.521,-0.521,-0.5211,-0.5219,-0.5235,0,0,0,0,0,-0.5728,-0.5689,-0.5625,-0.5588,-0.5567,-0.5515,-0.5489,-0.5462,-0.5414,-0.5396,-0.5352,-0.5307,-0.5263,-0.5235,-0.5191,-0.5144,-0.513,-0.5128,-0.5129,-0.5129,-0.5126,-0.51,-0.5099,-0.5114,-0.5114,-0.5114,0,0,-0.5733,-0.5687,-0.5665,-0.5595,-0.5557,-0.5518,-0.55,-0.5458,-0.5428,-0.5389,-0.5339,-0.5306,-0.5252,-0.5204,-0.5181,-0.5176,-0.5119,-0.5128,-0.5129,-0.5125,-0.5099,-0.5097,-0.5096,-0.5114,-0.5114,-0.5114,0,0,-0.5722,-0.5684,-0.5649,-0.5612,-0.5556,-0.5522,-0.5514,-0.5452,-0.5428,-0.5378,-0.5348,-0.5312,-0.5237,-0.52,-0.5171,-0.5148,-0.5127,-0.5135,-0.5138,-0.5114,-0.5112,-0.5111,-0.5103,-0.5101,-0.5132,-0.5132,-0.5132,0,-0.5736,-0.5674,-0.5633,-0.5593,-0.5563,-0.5527,-0.5491,-0.5458,-0.539,-0.5371,-0.5367,-0.5273,-0.5234,-0.5177,-0.5171,-0.5149,-0.5139,-0.5142,-0.5116,-0.5114,-0.5112,-0.5104,-0.5101,-0.5133,-0.5133,-0.5133,-0.5133,0,-0.5694,-0.5652,-0.563,-0.5567,-0.5535,-0.5497,-0.545,-0.5423,-0.5399,-0.5366,-0.5315,-0.5267,-0.5213,-0.5198,-0.5174,-0.5138,-0.5137,-0.5125,-0.5119,-0.5113,-0.5104,-0.5101,-0.5135,-0.5135,-0.5135,-0.5134,0,0,-0.5703,-0.5618,-0.5611,-0.5582,-0.5518,-0.5485,-0.5446,-0.5394,-0.5371,-0.5326,-0.5293,-0.5231,-0.522,-0.5188,-0.516,-0.5138,-0.5123,-0.5129,-0.5127,-0.5129,-0.5081,-0.509,-0.5087,-0.5109,-0.5108,-0.5108,-0.5085,0,-0.5683,-0.5612,-0.5575,-0.552,-0.5481,-0.5446,-0.5413,-0.537,-0.5338,-0.5301,-0.5265,-0.5222,-0.5211,-0.5191,-0.5168,-0.513,-0.5113,-0.5131,-0.5077,-0.5076,-0.5092,-0.5082,-0.5091,-0.5072,-0.5082,-0.5081,-0.508,0,-0.5651,-0.5607,-0.5548,-0.549,-0.5472,-0.5443,-0.5392,-0.5357,-0.5308,-0.5287,-0.5251,-0.5224,-0.5182,-0.5179,-0.5121,-0.5135,-0.511,-0.5088,-0.5087,-0.508,-0.5078,-0.5075,-0.5065,-0.5063,-0.5075,-0.5075,-0.5076,0,-0.5663,-0.559,-0.5545,-0.5522,-0.5452,-0.5433,-0.5403,-0.5354,-0.5326,-0.5282,-0.5263,-0.5215,-0.5188,-0.5152,-0.5112,-0.5114,-0.5058,-0.5052,-0.5039,-0.504,-0.5028,-0.5029,-0.5014,-0.5013,-0.5013,-0.5013,-0.5013,0,-0.5645,-0.5611,-0.555,-0.5523,-0.5484,-0.5441,-0.5403,-0.5371,-0.5328,-0.5294,-0.5262,-0.523,-0.518,-0.5142,-0.5111,-0.5068,-0.5056,-0.5038,-0.503,-0.504,-0.5043,-0.5024,-0.5024,-0.5012,-0.5013,-0.5013,-0.5013,0,-0.5653,-0.5611,-0.556,-0.5499,-0.5483,-0.5457,-0.5404,-0.5377,-0.5344,-0.5301,-0.5288,-0.5236,-0.5191,-0.5148,-0.5087,-0.5066,-0.5022,-0.5012,-0.5039,-0.5035,-0.5024,-0.5026,-0.4996,-0.499,-0.4994,-0.4994,-0.4994,0,-0.5644,-0.5616,-0.5553,-0.5528,-0.5499,-0.5459,-0.543,-0.5387,-0.5358,-0.5301,-0.5281,-0.5233,-0.5192,-0.5121,-0.5078,-0.5031,-0.5019,-0.5012,-0.5012,-0.5024,-0.5019,-0.5021,-0.5018,-0.5013,-0.5013,-0.5013,-0.5013,0,-0.5633,-0.5613,-0.5573,-0.5525,-0.5491,-0.5452,-0.5411,-0.5392,-0.5342,-0.5311,-0.5264,-0.5233,-0.5171,-0.5124,-0.5073,-0.5042,-0.5019,-0.5014,-0.5008,-0.5019,-0.5035,-0.5026,-0.5041,-0.5014,-0.5014,-0.5014,-0.5014,-0.5014,-0.5631,-0.5606,-0.5557,-0.5513,-0.5478,-0.5441,-0.5412,-0.5376,-0.5337,-0.5283,-0.526,-0.5213,-0.5166,-0.5095,-0.5064,-0.5027,-0.5022,-0.5014,-0.5012,-0.501,-0.5013,-0.5042,-0.5017,-0.5017,-0.5017,-0.5017,-0.5017,0,-0.5618,-0.5586,-0.5546,-0.549,-0.5456,-0.5438,-0.5392,-0.5365,-0.5324,-0.5282,-0.5243,-0.519,-0.5144,-0.5098,-0.505,-0.5029,-0.5017,-0.5018,-0.5018,-0.5012,-0.502,-0.5029,-0.5028,-0.5028,-0.5028,-0.5028,-0.5028,-0.5028,-0.5608,-0.5564,-0.5539,-0.5478,-0.5445,-0.5399,-0.5374,-0.534,-0.5307,-0.5249,-0.5211,-0.5181,-0.5138,-0.5086,-0.5044,-0.5031,-0.5015,-0.5019,-0.5003,-0.5012,-0.5011,-0.5011,-0.5019,-0.5016,-0.5016,-0.4998,-0.4998,-0.4998]},{"header":{"parameterUnit":"m.s-1","parameterCategory":1,"la1":30.2991,"la2":30.254,"lo1":-89.0895,"lo2":-89.0444,"dy":0.0017,"dx":0.0017,"nx":28,"ny":28,"refTime":"2024-04-20T03:00:00:Z","depth":0,"parameterNumber":3,"parameterNumberName":"V-component_of_WINDS"},"data":[0,0,0,0,0,0,0,0,0,0,0,0,0,0,0,0,0,0,0,0,0,0,0,0,0,0,0,0,0,0,0,0,0,0,0,0,0,0,0,0,0,0,0,0,0,0,0,0,0,0,0,0,0,0,0,0,0,0,3.7133,3.7133,0,3.7126,3.7126,3.7126,3.7077,3.7076,3.7075,3.7074,3.7066,3.7067,3.7068,0,0,0,0,0,0,0,0,0,0,0,0,0,3.7107,3.7108,3.7133,3.7133,3.7133,3.7126,3.7126,3.7126,3.7078,3.7076,3.7075,3.7073,3.7066,3.7067,3.7068,0,0,0,0,0,0,0,0,0,0,0,0,0,3.7111,3.7108,3.7133,3.7108,3.7106,3.7126,3.7126,3.7126,3.7078,3.7076,3.7074,3.7073,3.7066,3.7067,3.7068,3.7112,0,0,3.7072,3.7073,0,0,0,0,0,0,0,0,3.7111,3.7112,3.7112,3.711,3.7108,3.7101,3.7113,3.7121,3.7078,3.7089,3.7074,3.7072,3.7079,3.7079,3.7082,3.7111,3.7111,3.7072,3.7073,3.7074,3.7074,0,0,0,0,0,0,0,3.711,3.7112,3.713,3.7112,3.7109,3.7098,3.7096,3.7115,3.7094,3.7088,3.7084,3.7084,3.7078,3.7081,3.7081,3.7111,3.7072,3.7074,3.7074,3.7075,3.7176,3.7178,0,0,0,0,0,0,3.7114,3.7112,3.7131,3.713,3.7105,3.71,3.7098,3.7105,3.7093,3.709,3.7085,3.7082,3.7079,3.708,3.7081,3.7131,3.7074,3.7075,3.7076,3.7174,3.7176,3.7178,0,0,0,0,0,0,3.7113,3.7116,3.7131,3.712,3.7121,3.7102,3.711,3.7105,3.7108,3.7092,3.7088,3.7092,3.7078,3.7079,3.7104,3.713,3.7076,3.7077,3.7172,3.7175,3.7177,3.7232,0,0,0,0,0,0,3.7113,3.7116,3.7132,3.7121,3.7122,3.7155,3.7111,3.7107,3.7111,3.7106,3.7097,3.7094,3.7076,3.7103,3.7106,3.7131,3.7078,3.7169,3.7173,3.7176,3.7228,3.7236,3.7244,0,0,0,0,0,3.7112,3.7148,3.7133,3.7136,3.7142,3.7156,3.7157,3.7136,3.7113,3.7129,3.7119,3.7094,3.7127,3.7106,3.7109,3.7135,3.7168,3.7172,3.7176,3.7224,3.7235,3.7243,0,0,0,0,0,0,3.7163,3.7146,3.7129,3.7163,3.7161,3.7148,3.7168,3.7148,3.7153,3.7148,3.7122,3.712,3.715,3.7145,3.7121,3.7176,3.7143,3.7148,3.7179,3.7188,3.7196,3.7197,3.7079,0,0,0,0,0,3.7178,3.7191,3.7175,3.7206,3.7207,3.7188,3.7193,3.7177,3.7175,3.7174,3.7165,3.7164,3.7173,3.718,3.7188,3.7227,3.7224,3.7246,3.7254,3.7261,3.7265,3.7286,3.7295,3.7192,3.7192,3.7192,0,0,3.7209,3.7201,3.7211,3.7216,3.7213,3.7228,3.7187,3.7204,3.7215,3.7176,3.72,3.7194,3.719,3.7222,3.7236,3.7219,3.7293,3.7266,3.7271,3.7273,3.7291,3.7301,3.7309,3.7195,3.7194,3.7194,0,0,3.7274,3.7269,3.7294,3.7292,3.7288,3.7275,3.7282,3.7272,3.7266,3.7289,3.7261,3.7273,3.729,3.7289,3.7291,3.7355,3.7333,3.7358,3.74,3.742,3.7428,3.7435,3.7459,3.7467,3.7363,3.7363,3.7363,0,3.7313,3.7334,3.731,3.7329,3.7332,3.7298,3.7324,3.7323,3.7322,3.7325,3.7306,3.7327,3.7322,3.7354,3.737,3.7372,3.7378,3.736,3.7429,3.7436,3.7442,3.7464,3.7473,3.7366,3.7366,3.7366,3.7366,0,3.7383,3.7397,3.7418,3.7418,3.7424,3.7446,3.7426,3.7434,3.7418,3.7407,3.7431,3.7425,3.7431,3.7437,3.7421,3.7467,3.7456,3.7433,3.74,3.7455,3.7476,3.7484,3.7371,3.737,3.7369,3.7368,0,0,3.748,3.7466,3.7474,3.7474,3.7467,3.7478,3.7499,3.7505,3.7513,3.7513,3.753,3.7546,3.7524,3.7527,3.751,3.7528,3.758,3.7502,3.7502,3.7518,3.763,3.7648,3.7658,3.7565,3.7566,3.7567,3.7631,0,3.7542,3.7577,3.7556,3.7594,3.7607,3.7575,3.7593,3.7591,3.7581,3.7591,3.7581,3.7593,3.7563,3.7565,3.758,3.757,3.7602,3.7565,3.7581,3.7582,3.7583,3.7669,3.7687,3.7747,3.7638,3.764,3.7641,0,3.762,3.7623,3.7663,3.7653,3.7658,3.7675,3.7679,3.7689,3.7686,3.7677,3.768,3.7659,3.7679,3.7645,3.7673,3.7648,3.7653,3.7649,3.7651,3.7652,3.7615,3.7673,3.7766,3.7775,3.7653,3.7652,3.7651,0,3.7687,3.7702,3.7727,3.7728,3.7718,3.773,3.7726,3.7721,3.7727,3.773,3.7733,3.7739,3.7742,3.7748,3.7729,3.7706,3.7759,3.7724,3.7753,3.7754,3.7766,3.7766,3.7862,3.7769,3.7769,3.7768,3.7768,0,3.7759,3.7785,3.7758,3.7774,3.7801,3.7777,3.7805,3.7798,3.7794,3.7808,3.778,3.7794,3.7768,3.7779,3.7765,3.779,3.7791,3.7786,3.7782,3.7789,3.779,3.7792,3.7788,3.7771,3.777,3.777,3.7769,0,3.784,3.7822,3.7848,3.7836,3.7834,3.7855,3.7844,3.7859,3.7847,3.7865,3.7868,3.785,3.7862,3.7844,3.7853,3.7843,3.7879,3.7868,3.788,3.7877,3.7908,3.7906,3.801,3.8023,3.792,3.7921,3.7922,0,3.7887,3.7906,3.7896,3.7904,3.7901,3.7913,3.7919,3.7896,3.7902,3.79,3.7915,3.7924,3.793,3.7951,3.7939,3.7946,3.7936,3.7972,3.7937,3.7943,3.7937,3.7936,3.7939,3.7979,3.798,3.7981,3.7982,0,3.7974,3.7965,3.7973,3.7978,3.7985,3.7988,3.799,3.7997,3.7973,3.7982,3.7993,3.7998,3.8008,3.8018,3.8022,3.8018,3.7997,3.7993,3.8001,3.8008,3.8015,3.8012,3.79,3.7991,3.799,3.799,3.7989,3.7989,3.804,3.8055,3.8051,3.8061,3.8059,3.8061,3.8074,3.8064,3.8073,3.808,3.8065,3.8081,3.8077,3.8081,3.8079,3.8091,3.8075,3.8086,3.8089,3.8092,3.8097,3.8012,3.8092,3.8091,3.8091,3.8091,3.8091,0,3.8126,3.8121,3.8131,3.8133,3.8142,3.812,3.812,3.8128,3.8142,3.8141,3.8147,3.8161,3.817,3.8159,3.8166,3.8178,3.8168,3.8181,3.818,3.818,3.811,3.8104,3.8189,3.8189,3.8189,3.8189,3.8189,3.8189,3.8172,3.8197,3.8187,3.8211,3.8206,3.8221,3.8223,3.8224,3.8223,3.8239,3.8247,3.8239,3.8234,3.8241,3.8249,3.8245,3.8249,3.8266,3.8259,3.8194,3.8185,3.8176,3.8169,3.8267,3.8267,3.8327,3.8328,3.8328]}]]